Home   Weather   Montreux   Past weeks

Flag for Switzerland Past Weather in Montreux, Vaud, Switzerland — Yesterday and Last 2 Weeks

Now
52 °F

Cool.


Feels Like: 50 °F
Forecast: 42 / 53 °F
Wind: 5 mph from South

Location: Aigle

Current Time: Apr 24, 2017 at 11:07:26 pm

Latest Report: Apr 24, 2017 at 10:00 pm


Visibility: N/A

Pressure: 29.86 "Hg

Humidity: 68%

Dew Point: 41 °F

Location of MontreuxLocation

Past Weather in Montreux — Graph

°F

Montreux Temperature Yesterday

Maximum temperature yesterday: 65 °F (at 5:00 pm)
Minimum temperature yesterday: 34 °F (at 6:00 am)
Average temperature yesterday: 51 °F

High & Low Weather Summary for the Past Weeks

 TemperatureHumidityPressure
High75 °F (Apr 10, 3:00 pm)99% (Apr 12, 5:00 am)30.52 "Hg (Apr 12, 5:00 am)
Low26 °F (Apr 20, 7:00 am)20% (Apr 18, 5:00 pm)29.84 "Hg (Apr 24, 7:00 pm)
Average51 °F60%30.17 "Hg
* Reported Apr 9 9:00 pm — Apr 24 9:00 pm, Montreux, Weather by CustomWeather, © 2017

Note: Actual official high and low records may vary slightly from our data, if they occured in-between our weather recording intervals... More about our weather records

Advertising

Montreux Weather History for the Previous 24 Hours

Scroll right to see more
 ConditionsComfort  
Time TempWeatherWind HumidityBarometerVisibility
9:00 pm
Mon, Apr 24
57 °FRefreshingly cool.3 mph58%29.85 "HgN/A
8:00 pm62 °FPartly sunny.1 mph49%29.84 "Hg19 mi
7:00 pm67 °FMild.No wind34%29.84 "HgN/A
6:00 pm68 °FMild.2 mph33%29.85 "HgN/A
5:00 pm67 °FScattered clouds.8 mph35%29.87 "Hg19 mi
4:00 pm65 °FMild.6 mph36%29.91 "HgN/A
3:00 pm63 °FMild.7 mph37%29.94 "HgN/A
2:00 pm59 °FScattered clouds.7 mph39%29.98 "Hg19 mi
1:00 pm58 °FRefreshingly cool.10 mph41%30.01 "HgN/A
12:00 pm55 °FCool.9 mph46%30.05 "HgN/A
10:00 am50 °FCool.5 mph60%30.09 "HgN/A
9:00 am47 °FCool.2 mph69%30.11 "HgN/A
8:00 am39 °FSunny.1 mph89%30.14 "Hg19 mi
7:00 am33 °FChilly.1 mph94%30.14 "HgN/A
6:00 am36 °FChilly.No wind93%30.14 "HgN/A
5:00 am38 °FClear.1 mph91%30.13 "Hg19 mi
4:00 am38 °FChilly.1 mph86%30.14 "HgN/A
3:00 am38 °FChilly.1 mph87%30.14 "HgN/A
2:00 am40 °FChilly.2 mph83%30.14 "HgN/A
1:00 am43 °FQuite cool.1 mph74%30.13 "HgN/A
12:00 am43 °FQuite cool.1 mph73%30.13 "HgN/A
11:00 pm
Sun, Apr 23
45 °FCool.1 mph69%30.12 "HgN/A
Weather by CustomWeather, © 2017

See weather overviewHow to use our weather pages